GW3209 Weather Reports


Display with metric or nautical units.
time (UTC)temp
F
wind
direction
speed
MPH
gust
MPH
rain 1hr
in
rain 24hr
in
rain mn
in
humidity
%
barometer
mb
20260510173026 78 210 2.0 8.0 0.00 0.00 0.00 37 1016.0
20260510171529 78 152 4.0 10.0 0.00 0.00 0.00 35 1016.2
20260510170011 78 204 4.0 8.0 0.00 0.00 0.00 35 1016.2
20260510164520 78 294 1.0 5.0 0.00 0.00 0.00 36 1016.2
20260510163023 77 93 1.0 8.0 0.00 0.00 0.00 40 1016.4
20260510161526 77 5 2.0 8.0 0.00 0.00 0.00 43 1016.5
20260510160028 76 323 2.0 7.0 0.00 0.00 0.00 44 1016.5
20260510154537 76 355 3.0 8.0 0.00 0.00 0.00 44 1016.5
20260510153016 76 302 4.0 8.0 0.00 0.00 0.00 47 1016.6
20260510151504 75 342 1.0 6.0 0.00 0.00 0.00 52 1016.5
20260510150005 74 70 2.0 5.0 0.00 0.00 0.00 57 1016.5
20260510144517 72 329 1.0 8.0 0.00 0.00 0.00 57 1016.5
20260510143018 71 279 2.0 4.0 0.00 0.00 0.00 61 1016.6
20260510141504 70 293 2.0 5.0 0.00 0.00 0.00 65 1016.6
20260510140004 69 300 2.0 4.0 0.00 0.00 0.00 68 1016.6
20260510134510 68 309 1.0 6.0 0.00 0.00 0.00 70 1016.6
20260510133015 67 289 2.0 5.0 0.00 0.00 0.00 74 1016.4
20260510131534 66 263 3.0 6.0 0.00 0.00 0.00 76 1016.3
20260510130005 65 282 1.0 4.0 0.00 0.00 0.00 82 1016.2
20260510124509 63 211 2.0 3.0 0.00 0.00 0.00 86 1016.2
20260510123011 61 199 1.0 3.0 0.00 0.00 0.00 91 1016.2
20260510121517 60 191 0.0 3.0 0.00 0.00 0.00 93 1015.8
20260510120020 59 188 0.0 0.0 0.00 0.00 0.00 94 1015.6
20260510114524 57 188 0.0 0.0 0.00 0.00 0.00 97 1015.3
20260510113013 55 188 0.0 0.0 0.00 0.00 0.00 96 1015.1
20260510111512 54 188 0.0 0.0 0.00 0.00 0.00 96 1014.9
20260510110016 54 188 0.0 0.0 0.00 0.00 0.00 95 1014.5
20260510104523 54 188 0.0 0.0 0.00 0.00 0.00 96 1014.4
20260510103024 54 188 0.0 0.0 0.00 0.00 0.00 95 1014.1
20260510101508 54 188 0.0 0.0 0.00 0.00 0.00 95 1014.0
20260510100014 54 188 0.0 0.0 0.00 0.00 0.00 95 1013.8
20260510094519 55 188 0.0 0.0 0.00 0.00 0.00 94 1013.6
20260510093028 56 188 0.0 0.0 0.00 0.00 0.00 95 1013.6
20260510091530 56 188 0.0 0.0 0.00 0.00 0.00 94 1013.4
20260510090011 56 188 0.0 0.0 0.00 0.00 0.00 94 1013.4
20260510084518 57 188 0.0 0.0 0.00 0.00 0.00 94 1013.2
20260510083020 57 188 0.0 0.0 0.00 0.00 0.00 94 1013.0
20260510081530 57 188 0.0 0.0 0.00 0.00 0.00 94 1012.9
20260510080033 58 188 0.0 0.0 0.00 0.00 0.00 94 1012.7
20260510074513 58 188 0.0 0.0 0.00 0.00 0.00 94 1012.5
20260510073020 59 188 0.0 0.0 0.00 0.00 0.00 94 1012.4
20260510071526 59 188 0.0 0.0 0.00 0.00 0.00 93 1012.4
20260510070024 59 188 0.0 0.0 0.00 0.00 0.00 93 1012.4
20260510064529 60 188 0.0 0.0 0.00 0.00 0.00 93 1012.3
20260510063011 60 188 0.0 0.0 0.00 0.00 0.00 93 1012.4
20260510061515 60 188 0.0 0.0 0.00 0.00 0.00 93 1012.5
20260510060014 60 188 0.0 0.0 0.00 0.00 0.00 92 1012.7
20260510054506 60 188 0.0 1.0 0.00 0.00 0.00 93 1012.6
20260510053033 61 188 0.0 4.0 0.00 0.00 0.00 92 1012.7
20260510051516 60 188 0.0 0.0 0.00 0.00 0.00 92 1012.7
20260510050016 61 188 0.0 3.0 0.00 0.00 0.00 92 1012.8
20260510044518 61 188 0.0 2.0 0.00 0.00 0.00 91 1012.8
20260510043018 61 188 0.0 1.0 0.00 0.00 0.00 91 1012.7
20260510041517 61 188 0.0 0.0 0.00 0.00 0.00 89 1012.7
20260510040018 62 188 1.0 3.0 0.00 0.00 0.00 90 1012.7
20260510034519 62 188 0.0 2.0 0.00 0.00 0.00 89 1012.7
20260510033021 62 188 1.0 2.0 0.00 0.00 0.00 89 1012.7
20260510031528 63 188 0.0 2.0 0.00 0.00 0.00 89 1012.8
20260510030019 63 188 0.0 0.0 0.00 0.00 0.00 88 1012.8
20260510024521 63 188 1.0 3.0 0.00 0.00 0.00 87 1012.8
20260510023023 64 188 0.0 3.0 0.00 0.00 0.00 85 1012.7
20260510021529 64 187 1.0 4.0 0.00 0.00 0.00 86 1012.6
20260510020030 64 188 1.0 2.0 0.00 0.00 0.00 85 1012.4
20260510014519 65 188 2.0 4.0 0.00 0.00 0.00 83 1012.1
20260510013023 66 188 2.0 4.0 0.00 0.00 0.00 83 1011.9
20260510011524 66 184 2.0 5.0 0.00 0.00 0.00 82 1011.8
20260510010026 67 168 3.0 5.0 0.00 0.00 0.00 81 1011.4
20260510004515 67 174 1.0 5.0 0.00 0.00 0.00 80 1011.0
20260510003018 68 180 2.0 5.0 0.00 0.00 0.00 78 1010.9
20260510001519 69 167 4.0 6.0 0.00 0.00 0.00 77 1010.8
20260510000021 69 168 4.0 6.0 0.00 0.00 0.00 76 1010.7
20260509234514 70 173 3.0 7.0 0.00 0.00 0.00 75 1010.5
20260509233020 70 165 4.0 8.0 0.00 0.00 0.00 74 1010.6
20260509231522 71 174 4.0 8.0 0.00 0.00 0.00 73 1010.5
20260509230020 71 178 4.0 8.0 0.00 0.00 0.00 72 1010.3
20260509224523 72 157 4.0 10.0 0.00 0.00 0.00 71 1010.2
20260509223017 73 188 3.0 10.0 0.00 0.00 0.00 70 1010.1
20260509221522 73 149 7.0 12.0 0.00 0.00 0.00 69 1010.0
20260509220037 73 149 6.0 13.0 0.00 0.00 0.00 68 1009.8
20260509214511 74 157 4.0 11.0 0.00 0.00 0.00 66 1009.9
20260509213003 74 165 5.0 18.0 0.00 0.00 0.00 66 1009.8
20260509211504 74 146 4.0 14.0 0.00 0.00 0.00 67 1009.8
20260509210003 73 146 7.0 13.0 0.00 0.00 0.00 67 1010.0
20260509204512 73 158 8.0 14.0 0.00 0.00 0.00 68 1009.7
20260509203023 72 222 6.0 10.0 0.00 0.00 0.00 69 1009.5
20260509201502 72 192 7.0 12.0 0.00 0.00 0.00 68 1009.9
20260509200004 73 229 3.0 13.0 0.00 0.00 0.00 67 1009.9
20260509194504 72 142 6.0 14.0 0.00 0.00 0.00 70 1010.1
20260509193008 73 167 4.0 13.0 0.00 0.00 0.00 69 1010.1
20260509191514 72 178 4.0 13.0 0.00 0.00 0.00 70 1010.3
20260509190018 71 183 5.0 14.0 0.00 0.00 0.00 69 1010.5
20260509184504 71 211 6.0 12.0 0.00 0.00 0.00 70 1010.4
20260509183008 70 164 7.0 15.0 0.00 0.00 0.00 73 1010.4
20260509181512 69 159 6.0 13.0 0.00 0.00 0.00 73 1010.8
20260509180015 69 170 5.0 9.0 0.00 0.00 0.00 75 1011.0
20260509174537 69 177 5.0 11.0 0.00 0.00 0.00 74 1011.0